Temp
63 63 63 63 62 62 63 63 62 62 63 62 62 62 61 61 61 61 61 61 62 62 62 63 63 63 63 63 73 92 84 84 88 89 88 87 84 84 83 88 90 83 86 92 91 91 91
63 63 63 63 63 62 62 62 63 62 62 62 62 61 61 61 61 61 61 60 60 62 62 63 63 63 60 61 92 93 90 87 91 89 88 88 87 91 87 88 84 88 89 90 91 91 94
63 63 63 63 63 62 61 62 62 62 62 62 61 61 61 61 61 61 61 60 60 61 62 63 63 68 68 70 92 91 93 88 88 92 87 93 95 88 88 86 93 90 82 85 87 89 89
63 63 63 62 62 61 61 62 62 62 62 61 61 61 60 61 60 60 59 58 59 61 61 62 64 65 62 90 90 90 95 92 94 94 94 96 97 90 85 91 90 83 80 70 85 88 88
62 62 62 62 62 62 61 61 62 61 61 61 61 61 60 60 60 59 58 58 60 61 62 64 60 60 67 91 87 92 92 92 92 93 95 103 92 82 85 78 71 75 65 72 78 89 88
63 62 62 62 61 61 60 61 60 60 60 61 61 61 60 60 59 58 57 57 62 60 63 72 75 64 74 82 89 92 94 96 91 90 90 87 79 73 75 71 59 67 71 76 73 81 83
62 62 62 62 62 61 60 61 61 61 61 61 60 60 59 59 58 57 57 60 59 59 67 68 71 75 87 88 92 88 93 91 90 85 73 80 68 67 74 79 82 79 76 76 78 85 79
62 62 62 61 61 61 61 60 60 60 60 60 60 60 60 58 58 57 54 62 76 78 69 74 81 81 87 90 84 89 94 81 81 73 78 73 68 79 84 85 82 81 76 74 79 83 80
61 61 61 60 60 60 60 60 59 60 59 59 59 59 60 57 57 54 60 69 83 82 68 79 80 79 84 84 84 84 88 85 78 75 76 70 77 86 84 83 81 76 73 76 76 81 81
61 60 60 61 60 60 59 60 59 59 59 59 59 58 58 56 52 68 69 75 78 80 59 72 76 83 87 86 79 94 94 86 80 75 78 76 85 85 82 80 78 69 83 85 81 74 61
61 61 60 61 60 60 59 59 59 58 58 58 58 58 56 56 53 64 80 84 85 78 47 81 79 94 88 79 81 85 95 86 77 78 76 74 79 79 77 80 83 75 85 78 79 71 64
61 61 61 60 60 59 59 59 58 58 58 58 57 56 56 58 56 64 74 79 81 58 52 76 84 79 78 80 82 85 87 88 88 79 79 78 88 85 83 86 85 87 81 78 75 66 54
61 61 60 60 60 59 58 59 58 58 58 57 55 54 54 65 70 78 82 76 56 52 79 74 74 79 77 74 78 79 79 76 71 62 64 75 79 85 87 77 80 78 65 53 52 52 51
61 61 60 60 60 59 59 59 59 58 57 56 53 52 54 60 73 73 74 63 51 70 71 82 79 78 73 76 76 79 76 71 77 74 65 62 62 77 85 77 70 70 66 55 49 50 54
61 61 60 60 60 59 59 59 58 57 57 55 53 58 64 68 64 69 65 55 59 71 82 82 80 72 71 77 75 74 73 73 77 78 65 62 66 84 87 83 80 71 62 71 60 61 52
60 60 60 60 59 59 59 59 58 57 56 54 58 70 72 83 76 71 61 55 68 81 83 82 73 75 67 73 72 70 71 79 78 83 80 74 60 78 85 85 82 75 78 61 58 50 49
60 60 60 60 59 59 59 59 58 57 55 53 63 67 80 83 79 66 58 63 74 82 84 77 73 73 75 73 75 71 73 80 84 83 83 78 66 72 76 73 70 69 64 63 62 63 56
60 59 59 59 59 59 59 59 57 55 54 58 71 65 84 85 64 65 63 70 67 79 86 82 81 79 76 78 73 74 75 79 89 86 75 78 66 60 68 81 85 79 73 70 63 58 59
59 59 59 59 59 59 59 58 57 55 54 53 63 72 86 83 60 65 71 74 79 79 81 81 80 82 78 71 67 78 79 88 89 85 77 75 63 56 62 73 74 71 74 70 71 71 59
59 60 59 59 59 59 59 58 57 56 55 54 64 65 71 75 75 70 69 72 74 85 83 85 81 83 76 73 76 73 78 88 89 86 78 77 67 62 59 57 65 63 72 75 65 59 61
60 59 59 59 59 59 59 58 58 56 56 55 68 68 71 64 68 71 72 71 72 75 83 82 76 75 70 58 63 68 74 76 85 80 79 74 62 65 64 68 73 70 71 75 68 68 60
59 59 59 59 59 59 59 59 58 56 55 61 66 63 72 68 75 73 69 70 74 79 75 73 69 72 69 61 62 59 64 65 65 70 73 74 61 61 61 73 75 72 76 76 76 70 68
58 59 59 59 59 59 59 59 58 56 57 64 72 74 68 65 69 63 64 67 76 78 69 70 72 67 64 65 67 66 63 67 66 61 64 67 64 59 56 69 68 63 74 76 73 71 70
58 58 58 59 59 59 59 59 59 58 56 58 64 67 64 63 65 61 65 70 71 73 65 67 72 67 68 71 71 67 69 67 73 67 69 61 61 60 57 60 50 60 74 76 78 74 70
58 58 58 58 59 59 59 59 59 59 57 57 63 64 64 60 66 67 67 63 66 73 65 71 76 75 70 67 59 57 59 65 65 67 66 68 60 59 55 54 64 66 66 65 67 64 70
57 57 57 58 58 58 59 59 59 59 57 58 63 68 67 62 66 70 63 62 57 62 66 74 78 72 69 61 60 54 48 52 53 57 64 66 70 64 58 54 51 57 67 71 70 57 70
57 57 57 57 58 58 58 59 59 59 58 56 61 68 66 61 70 72 69 66 73 71 62 64 68 70 76 66 56 52 49 54 52 50 50 52 61 60 58 55 54 62 66 70 57 56 63
56 56 56 57 58 58 58 58 59 59 58 56 60 66 67 63 68 75 77 71 71 68 59 61 64 70 62 56 55 54 52 53 53 54 53 52 52 56 54 53 52 65 66 60 60 64 67
56 56 57 57 57 57 57 58 58 58 58 58 58 72 75 66 68 76 78 81 81 80 72 66 69 69 68 55 55 54 51 52 51 51 58 52 56 49 56 57 64 64 63 63 62 64 66
MSLP
1020.76 1020.40 1019.97 1019.57 1019.17 1018.79 1018.40 1018.01 1017.61 1017.24 1016.88 1016.57 1016.25 1015.96 1015.65 1015.34 1014.99 1014.61 1014.26 1014.02 1013.70 1013.51 1013.35 1013.17 1012.95 1012.60 1011.86 1010.90 1007.37 1004.58 1004.60 1004.88 1005.42 1005.58 1005.48 1005.17 1004.77 1004.00 1002.80 1001.61 1001.41 1001.64 1001.97 1001.84 1001.86 1001.99 1002.07
1020.86 1020.48 1020.03 1019.64 1019.22 1018.80 1018.40 1018.00 1017.60 1017.22 1016.85 1016.50 1016.19 1015.86 1015.58 1015.26 1014.88 1014.50 1014.14 1013.92 1013.68 1013.42 1013.28 1013.14 1012.92 1012.69 1012.08 1009.40 1004.22 1004.21 1004.58 1005.10 1005.00 1005.24 1004.99 1004.80 1004.08 1003.11 1002.30 1001.71 1001.56 1001.67 1001.72 1001.62 1001.67 1001.64 1001.73
1020.92 1020.51 1020.06 1019.66 1019.24 1018.78 1018.39 1018.00 1017.58 1017.16 1016.80 1016.48 1016.14 1015.77 1015.48 1015.14 1014.76 1014.34 1014.01 1013.80 1013.51 1013.29 1013.19 1013.06 1012.92 1012.44 1010.79 1006.96 1003.82 1004.33 1003.84 1004.39 1004.52 1004.46 1004.48 1003.93 1003.24 1003.04 1002.41 1002.10 1001.36 1001.67 1001.97 1001.65 1001.46 1001.52 1001.84
1020.96 1020.54 1020.07 1019.59 1019.21 1018.75 1018.34 1017.97 1017.56 1017.11 1016.66 1016.35 1016.03 1015.69 1015.39 1014.98 1014.61 1014.26 1013.90 1013.59 1013.30 1013.14 1013.05 1012.98 1012.86 1012.10 1009.30 1004.70 1004.09 1004.19 1003.50 1003.86 1003.86 1003.85 1003.77 1003.15 1002.92 1002.71 1002.66 1002.28 1001.80 1001.89 1002.04 1001.97 1001.41 1001.58 1002.04
1021.03 1020.59 1020.09 1019.54 1019.14 1018.72 1018.30 1017.89 1017.46 1017.02 1016.62 1016.22 1015.85 1015.54 1015.24 1014.84 1014.44 1014.07 1013.69 1013.30 1012.99 1012.85 1012.79 1012.73 1012.60 1011.50 1007.44 1003.77 1003.91 1003.49 1003.21 1003.34 1003.49 1003.46 1003.28 1002.98 1002.96 1002.81 1002.86 1002.98 1002.65 1002.24 1002.37 1002.02 1001.81 1001.54 1001.88
1021.09 1020.66 1020.15 1019.59 1019.15 1018.71 1018.30 1017.86 1017.40 1016.97 1016.54 1016.10 1015.71 1015.34 1015.00 1014.62 1014.24 1013.87 1013.31 1012.96 1012.50 1012.60 1012.35 1011.91 1011.07 1010.37 1006.45 1003.44 1003.04 1003.14 1002.90 1002.85 1003.16 1003.37 1003.40 1003.32 1003.39 1003.56 1003.41 1003.42 1003.25 1002.61 1002.14 1001.91 1001.88 1002.04 1001.99
1021.14 1020.64 1020.08 1019.53 1019.10 1018.67 1018.23 1017.72 1017.25 1016.77 1016.36 1015.92 1015.52 1015.13 1014.78 1014.36 1014.08 1013.86 1013.09 1012.46 1012.58 1011.87 1010.70 1008.64 1007.18 1005.80 1003.43 1002.62 1002.31 1002.88 1002.75 1002.87 1002.90 1003.28 1003.68 1003.65 1004.09 1003.61 1003.17 1002.86 1002.06 1002.04 1002.14 1001.78 1001.81 1002.15 1002.47
1021.16 1020.56 1019.99 1019.55 1019.03 1018.55 1018.10 1017.61 1017.08 1016.57 1016.14 1015.68 1015.29 1014.89 1014.49 1014.18 1013.90 1013.79 1013.83 1011.85 1007.90 1007.72 1007.22 1006.27 1005.46 1004.74 1003.13 1002.62 1002.48 1002.56 1002.56 1003.08 1003.03 1003.42 1003.74 1003.93 1003.61 1002.92 1002.56 1002.24 1001.75 1001.67 1001.69 1001.47 1001.86 1002.15 1002.48
1021.08 1020.48 1019.94 1019.45 1018.95 1018.38 1017.86 1017.32 1016.85 1016.38 1015.85 1015.40 1014.95 1014.55 1014.21 1013.94 1013.58 1013.39 1011.95 1009.37 1006.94 1006.83 1006.33 1004.09 1003.52 1003.45 1002.32 1001.47 1001.60 1001.79 1002.14 1002.50 1002.79 1003.34 1003.47 1003.49 1002.57 1002.19 1001.93 1001.67 1001.54 1001.27 1001.32 1001.13 1001.82 1001.86 1002.12
1021.00 1020.37 1019.80 1019.26 1018.78 1018.22 1017.61 1017.08 1016.59 1016.00 1015.49 1015.06 1014.60 1014.21 1013.95 1013.68 1013.61 1011.19 1009.77 1007.10 1007.32 1007.55 1006.46 1002.78 1001.86 1001.54 1001.60 1001.38 1001.41 1001.05 1001.46 1002.12 1002.36 1002.76 1002.98 1002.79 1001.95 1001.70 1001.12 1000.77 1001.21 1001.04 1000.69 1000.93 1001.68 1002.09 1003.00
1020.99 1020.30 1019.68 1019.08 1018.58 1018.04 1017.47 1016.79 1016.13 1015.59 1015.12 1014.60 1014.14 1013.82 1013.66 1013.80 1012.98 1010.72 1006.84 1006.40 1006.20 1006.81 1005.14 1000.01 1000.60 999.80 1000.35 1001.06 1000.53 1000.64 1000.82 1001.57 1002.04 1002.21 1002.54 1002.02 1001.54 1001.09 1000.68 1000.32 1000.24 1000.74 1000.66 1001.02 1001.77 1002.70 1003.54
1020.82 1020.14 1019.51 1018.93 1018.32 1017.72 1017.08 1016.51 1015.89 1015.25 1014.64 1014.04 1013.56 1013.33 1013.29 1012.68 1012.53 1008.79 1006.89 1006.41 1005.75 1006.06 1002.62 999.83 999.52 999.79 1000.34 1000.68 1000.74 1000.52 1000.72 1001.29 1001.64 1002.06 1001.90 1001.51 1000.70 1000.42 1000.08 999.74 999.98 1000.45 1000.94 1001.48 1002.22 1003.51 1004.99
1020.70 1020.04 1019.32 1018.68 1018.04 1017.46 1016.85 1016.16 1015.46 1014.73 1013.96 1013.38 1012.95 1012.71 1012.84 1011.22 1009.07 1007.32 1006.90 1006.49 1006.12 1004.01 999.74 999.48 999.30 999.47 1000.05 1000.44 1000.59 1000.55 1000.72 1001.30 1001.65 1002.09 1002.22 1001.50 1000.52 999.96 999.62 999.72 999.98 1000.66 1001.68 1002.78 1003.91 1005.04 1006.66
1020.56 1019.87 1019.18 1018.50 1017.83 1017.15 1016.49 1015.74 1015.03 1014.24 1013.37 1012.65 1012.14 1011.96 1011.28 1010.35 1008.05 1008.40 1007.45 1006.94 1005.17 1001.54 999.78 998.96 998.90 999.36 999.94 1000.06 1000.30 1000.13 1000.51 1001.21 1001.46 1001.74 1001.80 1001.60 1000.76 999.74 999.26 999.39 1000.10 1000.97 1001.88 1003.15 1004.60 1005.92 1007.30
1020.44 1019.76 1019.04 1018.34 1017.62 1016.92 1016.21 1015.44 1014.68 1013.83 1012.86 1012.00 1011.16 1010.73 1009.83 1007.95 1008.32 1009.07 1008.02 1006.46 1003.06 1000.34 998.82 997.99 998.57 998.80 999.50 999.63 999.81 999.92 999.92 1000.43 1000.71 1000.88 1001.43 1001.10 1000.24 999.23 998.88 999.07 999.83 1000.76 1001.74 1001.96 1004.27 1005.75 1007.69
1020.35 1019.61 1018.89 1018.19 1017.46 1016.72 1015.98 1015.20 1014.36 1013.28 1012.14 1011.42 1010.59 1008.89 1007.10 1005.66 1007.15 1007.88 1007.32 1005.03 1002.30 1000.18 998.61 997.77 997.12 997.90 998.64 998.99 999.26 999.24 999.30 999.31 999.70 999.88 1000.08 1000.13 1000.53 999.16 998.36 998.60 999.28 1000.22 1001.10 1002.53 1004.57 1006.58 1008.63
1020.28 1019.54 1018.84 1018.12 1017.41 1016.67 1015.90 1015.12 1014.30 1013.15 1011.48 1010.54 1009.91 1007.82 1005.40 1005.73 1006.71 1007.04 1005.92 1004.01 1002.03 1000.10 999.30 998.12 997.76 997.81 997.59 998.23 998.49 998.58 998.62 998.27 998.40 998.78 999.27 999.67 1000.30 999.23 998.94 998.62 999.28 1000.04 1000.92 1002.20 1004.06 1005.41 1007.24
1020.21 1019.52 1018.77 1018.01 1017.28 1016.51 1015.78 1015.02 1014.33 1013.40 1011.87 1010.58 1009.12 1006.52 1004.81 1005.48 1006.18 1005.57 1004.55 1003.26 1001.56 999.94 998.62 998.03 997.89 997.68 997.30 997.34 997.76 997.91 997.58 997.04 996.88 997.64 998.43 998.80 999.49 999.79 999.00 998.41 998.16 999.06 1000.08 1001.13 1002.86 1004.28 1006.45
1020.17 1019.47 1018.70 1017.94 1017.20 1016.43 1015.68 1014.98 1014.35 1013.85 1013.37 1012.79 1009.74 1006.22 1004.44 1004.74 1004.74 1004.23 1003.48 1002.40 1001.12 999.81 998.58 997.64 997.75 997.37 997.44 997.65 997.75 997.26 996.80 996.21 996.06 996.78 997.70 998.48 999.52 1000.10 999.73 998.75 998.33 999.08 999.69 1000.20 1001.08 1001.99 1004.82
1020.12 1019.40 1018.66 1017.90 1017.15 1016.40 1015.65 1014.91 1014.21 1013.59 1013.38 1013.16 1009.98 1006.19 1004.77 1004.57 1004.00 1003.74 1003.02 1001.64 1000.36 999.10 998.39 997.80 997.88 997.83 998.43 998.88 997.47 997.49 997.03 996.36 996.00 996.44 997.12 998.05 999.20 1000.16 1000.64 1001.14 1000.32 1000.16 1000.09 1000.15 1000.65 1001.95 1004.08
1020.00 1019.36 1018.62 1017.91 1017.17 1016.41 1015.65 1014.85 1014.06 1012.98 1012.16 1012.28 1009.03 1006.22 1005.03 1004.46 1003.95 1003.51 1003.10 1001.95 1000.56 999.14 998.33 998.33 998.66 999.76 999.98 1000.90 999.96 999.43 998.89 997.39 996.53 996.62 997.26 998.28 999.49 999.93 1000.78 1000.84 1000.16 999.82 999.96 1000.15 1000.48 1000.97 1002.26
1020.02 1019.29 1018.58 1017.90 1017.20 1016.47 1015.72 1014.94 1014.10 1012.90 1011.15 1010.83 1008.57 1007.34 1005.52 1004.76 1003.00 1002.96 1002.46 1001.82 1000.84 999.77 999.89 999.94 1000.80 1001.54 1002.20 1002.64 1003.17 1002.95 1002.49 1001.02 1000.38 999.10 998.28 998.66 999.71 1000.19 1000.61 1000.53 999.90 999.83 999.85 999.87 999.98 1001.87 1003.32
1019.95 1019.29 1018.61 1017.91 1017.22 1016.51 1015.81 1015.10 1014.37 1013.60 1011.75 1010.91 1009.06 1007.86 1006.79 1004.81 1004.32 1004.06 1003.98 1003.10 1001.09 1000.28 1002.18 1002.25 1002.58 1002.16 1003.36 1004.21 1003.58 1003.67 1003.63 1002.74 1002.22 1001.79 1000.98 1000.13 1000.21 1000.96 1001.07 1000.49 1000.76 1001.34 999.94 999.74 999.78 1001.53 1002.41
1019.89 1019.27 1018.60 1017.89 1017.20 1016.52 1015.87 1015.26 1014.68 1014.28 1014.24 1013.66 1011.26 1009.70 1007.84 1006.09 1005.42 1005.34 1004.48 1003.66 1002.25 1001.98 1002.39 1002.03 1002.72 1002.74 1003.43 1003.84 1002.94 1002.98 1002.78 1003.01 1002.31 1001.87 1002.16 1001.63 1001.49 1001.42 1001.79 1001.38 1001.30 1001.78 1000.88 1000.52 999.82 1002.00 1002.36
1019.80 1019.20 1018.54 1017.87 1017.16 1016.52 1015.90 1015.31 1014.80 1014.42 1014.13 1013.57 1011.71 1010.48 1008.68 1007.34 1006.15 1005.43 1004.75 1004.43 1003.09 1002.32 1001.78 1000.96 1001.43 1002.07 1003.22 1003.87 1003.98 1004.50 1004.53 1003.91 1003.43 1003.07 1002.58 1003.24 1003.24 1002.16 1002.03 1002.12 1001.76 1001.87 1002.60 1003.38 1003.12 1004.36 1004.48
1019.74 1019.11 1018.48 1017.82 1017.13 1016.48 1015.88 1015.28 1014.76 1014.35 1013.91 1012.97 1011.26 1010.22 1009.26 1008.05 1005.86 1005.46 1005.16 1005.44 1005.36 1003.06 1001.86 1001.57 1001.51 1001.16 1002.89 1003.75 1004.71 1005.68 1007.37 1007.96 1006.97 1005.16 1004.10 1003.41 1002.48 1003.49 1002.26 1002.95 1003.52 1004.32 1003.87 1003.07 1003.80 1004.93 1005.16
1019.64 1019.04 1018.40 1017.74 1017.07 1016.40 1015.80 1015.23 1014.68 1014.22 1013.90 1013.70 1011.54 1010.14 1009.55 1008.36 1005.82 1005.35 1004.69 1005.07 1004.39 1003.26 1003.38 1002.86 1002.59 1002.67 1002.44 1003.31 1005.24 1006.86 1008.56 1010.06 1009.46 1009.20 1008.32 1007.19 1004.76 1002.92 1002.86 1003.38 1004.68 1005.00 1004.74 1003.82 1004.42 1006.37 1005.52
1019.50 1018.92 1018.25 1017.57 1016.88 1016.26 1015.66 1015.10 1014.57 1014.13 1013.77 1013.45 1011.21 1009.92 1009.42 1008.34 1006.38 1005.25 1004.55 1004.06 1003.45 1003.18 1003.14 1003.09 1003.00 1002.39 1003.26 1005.25 1007.16 1008.50 1009.65 1010.04 1010.04 1010.22 1010.35 1009.57 1006.93 1004.77 1004.11 1004.46 1005.00 1004.85 1005.05 1005.42 1006.46 1006.04 1004.69
1019.32 1018.70 1018.01 1017.33 1016.67 1016.05 1015.45 1014.90 1014.35 1013.95 1013.66 1013.43 1011.65 1009.35 1008.76 1008.21 1006.30 1004.95 1004.24 1003.50 1002.84 1002.49 1002.43 1002.57 1002.59 1002.78 1003.56 1006.42 1007.58 1008.84 1009.70 1009.84 1009.01 1009.59 1009.05 1009.78 1008.22 1007.62 1006.26 1005.83 1005.05 1005.57 1005.93 1005.74 1005.58 1004.90 1004.22
Wind_Speed
17 17 17 16 14 14 15 16 15 14 15 15 15 14 14 14 14 15 15 14 13 11 11 11 11 12 6 4 11 5 9 9 4 4 9 11 14 15 17 5 3 3 2 3 8 7 7
17 17 16 17 16 14 14 15 16 16 16 15 14 14 14 14 15 15 15 15 14 11 10 10 10 13 3 6 9 11 10 8 9 9 9 11 10 15 9 6 4 3 5 4 7 7 3
18 18 17 17 16 14 14 15 16 16 16 14 15 14 15 14 15 16 15 16 14 12 10 9 8 6 5 18 5 3 11 10 10 11 11 12 17 12 10 11 5 4 7 6 7 7 5
16 17 17 15 15 15 14 17 17 17 15 16 15 15 15 15 15 15 15 15 12 11 10 8 7 5 10 9 14 16 10 9 12 10 13 15 13 9 6 10 6 5 6 4 5 6 3
17 16 16 16 16 16 16 16 17 16 15 16 15 15 15 15 14 14 14 14 12 10 9 8 4 4 10 5 7 11 9 10 12 12 12 16 6 3 8 8 7 4 7 7 5 1 3
18 17 17 17 17 16 16 15 15 15 16 17 16 16 16 16 13 14 17 13 6 8 6 8 9 5 7 9 9 11 10 10 9 11 9 9 1 5 8 6 6 3 2 5 6 2 4
16 17 19 17 18 17 17 19 19 18 18 17 17 15 14 13 11 11 11 1 1 1 6 12 10 8 9 10 5 7 10 10 9 7 8 8 4 10 15 12 10 5 6 9 6 6 3
17 20 19 18 17 19 20 17 18 17 16 16 17 16 17 12 11 8 5 6 6 7 8 21 19 19 19 10 7 12 11 8 8 8 10 7 12 15 16 11 6 11 8 8 5 15 8
17 17 17 17 17 16 19 20 17 17 16 16 16 15 16 11 12 6 8 14 10 16 4 8 18 12 13 3 10 12 13 13 7 10 11 11 15 19 18 16 9 6 6 6 10 4 2
19 17 18 20 18 17 17 19 18 17 17 16 16 15 12 11 5 4 7 10 16 10 4 8 14 8 13 6 7 9 14 9 6 13 14 12 18 18 15 7 11 5 8 10 5 1 6
19 18 18 21 20 20 18 18 19 18 17 17 17 14 11 4 10 5 4 3 11 5 4 10 10 7 9 10 6 15 12 9 13 9 9 15 14 12 13 10 5 10 5 2 5 6 4
19 20 19 19 20 18 21 19 18 18 18 18 16 13 9 6 5 14 15 16 2 2 8 10 11 10 10 10 12 8 12 9 10 12 10 12 15 11 14 5 7 8 8 5 6 3 4
20 20 20 20 22 22 19 21 19 19 21 19 14 11 7 7 5 11 9 4 2 5 8 13 11 17 13 10 14 10 16 14 12 7 9 11 13 14 9 6 5 6 5 4 6 4 2
23 21 21 23 23 23 22 21 22 24 23 20 13 9 9 11 8 10 5 1 6 10 13 3 10 15 14 11 12 12 14 11 13 12 6 8 10 10 9 8 5 7 8 7 5 3 4
23 23 23 23 23 24 24 21 21 24 24 21 20 4 4 8 15 5 2 6 7 7 5 10 18 15 11 12 10 9 11 15 15 15 10 7 11 11 14 4 10 10 4 9 4 3 6
22 23 23 23 23 24 25 25 26 27 26 24 3 4 6 8 12 4 3 8 10 12 19 12 8 10 10 14 12 10 12 14 15 17 11 14 6 10 14 9 9 11 5 6 4 3 1
20 21 23 23 23 24 24 25 25 27 31 11 3 4 8 13 7 3 6 7 11 19 20 2 8 10 12 13 14 10 13 9 18 15 15 13 5 19 6 10 10 4 3 3 7 7 9
20 22 23 23 23 24 25 24 24 23 29 3 5 3 10 11 4 4 9 7 9 22 23 5 10 17 9 13 11 15 13 13 17 20 12 12 4 7 11 9 15 10 11 12 7 7 6
20 20 23 23 23 24 25 25 23 18 13 6 4 3 8 9 4 8 11 18 21 22 20 6 9 10 4 5 7 15 11 9 10 19 13 7 4 5 12 9 2 5 8 7 6 3 8
21 22 21 23 24 24 25 25 25 20 11 3 4 2 3 6 9 13 13 13 17 18 17 14 11 9 9 22 8 7 10 13 8 9 5 5 6 8 8 7 5 2 11 11 2 3 11
21 21 22 23 23 24 24 23 26 25 24 4 5 3 3 4 10 12 13 10 20 17 9 8 10 14 7 7 11 12 14 5 5 10 6 5 6 6 9 8 4 6 5 12 7 8 5
20 21 22 22 24 22 24 25 27 28 32 4 3 4 6 13 11 12 14 13 17 20 10 3 17 17 14 6 4 5 8 8 6 13 6 3 6 4 4 8 9 8 12 9 15 14 16
20 21 22 22 22 23 24 24 24 24 23 5 6 7 4 8 11 6 4 12 16 8 9 11 7 8 9 8 3 7 7 9 5 2 5 4 5 2 6 6 10 9 9 15 1 16 17
21 21 21 23 23 23 23 23 23 22 14 4 5 5 4 6 4 6 8 20 17 7 4 1 2 3 9 9 6 5 5 9 4 3 6 3 2 4 5 5 4 4 17 14 17 5 6
21 21 22 22 22 23 23 22 21 21 17 5 4 4 4 6 5 8 15 17 19 18 23 11 6 7 10 1 5 6 7 9 12 13 13 5 6 3 5 4 8 10 11 8 9 5 4
21 21 22 22 22 22 22 21 20 21 19 7 7 6 3 4 3 2 4 14 13 10 10 8 8 14 6 4 3 4 6 6 8 20 18 23 9 10 1 6 5 2 11 12 10 5 15
21 21 22 22 22 23 22 21 21 21 20 8 7 4 4 5 6 13 4 3 4 5 2 3 6 4 10 4 3 4 5 3 2 7 12 14 17 4 1 5 1 1 8 12 6 5 16
20 21 22 21 22 22 22 21 21 20 19 9 9 10 4 3 12 7 11 9 6 5 2 6 5 2 4 13 5 3 5 4 4 3 5 3 9 4 5 5 3 2 6 4 5 4 3
22 22 22 22 22 22 22 21 19 19 17 11 5 7 9 4 8 15 17 18 9 6 2 1 5 3 3 7 2 1 3 3 4 5 4 7 2 1 4 3 1 1 4 6 8 5 3
Wind_Direction
9 6 4 1 357 355 355 353 350 349 348 347 344 342 339 337 334 330 327 325 314 305 305 310 317 323 324 233 250 195 146 152 187 211 232 253 269 278 279 327 130 113 286 143 156 200 244
6 3 1 1 358 353 350 350 351 349 347 345 342 339 337 334 331 328 323 320 312 303 301 306 313 316 243 253 237 163 171 153 207 204 227 242 255 276 298 299 66 12 277 295 170 211 219
5 2 360 360 356 350 349 348 348 347 345 344 340 338 335 331 328 327 321 317 305 296 294 298 304 293 262 242 268 297 181 173 211 204 233 243 253 276 324 317 144 216 290 241 258 181 173
3 358 355 354 352 349 347 350 348 345 342 341 338 337 332 329 327 325 318 313 296 286 284 280 290 279 251 257 245 271 246 194 197 235 228 255 278 276 296 292 286 212 261 270 241 140 109
358 354 351 354 352 351 348 345 345 342 339 338 336 333 329 327 321 317 315 309 293 280 268 268 241 231 263 250 218 231 264 230 195 228 233 251 299 290 307 289 315 246 232 231 191 204 213
1 355 351 351 350 348 345 344 340 339 336 337 334 329 325 323 317 320 316 289 300 295 229 231 260 289 259 226 191 212 244 248 205 219 224 253 360 279 277 267 251 296 338 335 152 241 272
353 351 352 350 350 350 345 346 343 340 336 333 330 326 319 318 318 329 338 228 175 235 241 203 193 233 270 228 153 194 228 240 242 195 217 228 211 233 242 247 320 212 161 250 142 280 223
355 355 354 350 347 347 344 337 338 335 330 327 327 322 321 315 312 325 298 252 255 347 261 223 244 240 267 253 167 198 199 204 214 195 220 243 227 246 249 249 251 227 245 250 141 224 178
346 348 347 344 343 339 340 342 332 330 327 325 318 318 317 313 315 281 227 239 304 335 288 269 204 229 246 225 188 203 179 213 207 211 213 222 232 231 248 251 226 246 251 284 148 211 223
346 343 344 348 344 340 337 336 329 324 324 321 317 314 313 316 303 255 230 236 242 263 289 253 177 219 241 184 271 223 190 192 233 207 230 226 248 251 248 234 196 266 244 270 297 281 219
344 342 342 345 342 342 338 331 328 323 319 316 312 306 306 283 318 251 287 222 215 190 306 156 144 194 190 180 193 228 189 201 225 232 196 244 234 246 268 252 194 258 307 292 295 303 274
341 342 341 343 342 338 338 333 325 324 323 317 307 297 297 240 219 249 296 298 208 254 245 166 153 160 182 198 235 200 188 197 218 242 248 241 255 245 240 252 222 257 286 248 241 242 5
342 341 340 341 342 340 335 336 331 328 323 322 308 282 235 293 219 340 277 300 181 236 277 146 165 167 199 190 219 221 183 191 216 206 251 261 251 265 249 263 205 243 329 323 335 358 193
345 344 343 343 342 341 339 335 337 333 328 325 313 298 215 229 261 325 292 226 243 228 254 323 163 167 203 187 224 230 172 191 219 239 208 231 272 242 254 189 208 245 204 168 238 123 188
344 344 343 343 342 342 340 337 335 331 330 332 312 193 239 228 228 249 281 216 212 236 336 261 165 174 190 212 180 226 186 197 199 223 225 219 236 247 226 175 161 266 303 232 124 77 72
343 343 343 343 342 342 342 342 342 333 329 331 287 247 215 170 162 211 242 248 247 296 309 334 174 173 174 214 192 208 193 195 214 213 221 258 291 256 224 198 200 192 219 44 9 93 128
340 341 343 343 343 343 343 344 345 337 333 351 233 244 113 130 157 228 226 242 260 270 276 355 313 308 186 196 200 214 224 201 203 222 207 233 206 278 290 194 187 226 192 149 139 148 205
341 344 343 343 344 344 345 345 348 342 336 344 303 262 143 158 174 204 234 242 261 278 295 252 261 281 277 201 192 205 220 204 203 205 215 215 196 250 246 270 180 186 210 195 200 229 81
344 343 344 344 345 345 345 346 347 346 5 321 276 266 162 190 233 228 231 251 260 270 276 250 226 278 353 290 214 205 226 231 220 190 205 203 242 286 322 320 185 175 254 230 231 246 168
345 348 346 346 345 346 346 346 345 340 339 279 275 282 165 213 263 288 290 260 253 260 261 291 310 314 27 282 260 197 209 223 232 166 179 134 183 168 228 201 179 349 326 321 356 232 151
347 343 345 346 346 345 344 342 346 339 339 199 232 280 292 243 236 240 262 287 290 280 228 266 295 34 46 14 358 1 1 14 206 143 125 139 217 216 124 188 188 200 270 292 290 271 196
338 343 345 345 346 345 346 348 351 348 338 226 316 353 342 295 272 214 233 257 270 277 329 99 54 53 25 80 79 309 344 35 31 325 169 215 238 228 256 197 157 234 236 269 282 92 73
342 344 345 344 344 345 347 349 354 2 345 347 352 339 280 289 22 7 25 349 309 356 53 49 21 77 30 309 279 212 222 285 230 23 318 290 151 193 263 228 205 237 226 236 327 137 143
341 342 342 343 343 345 346 348 353 2 15 308 281 301 287 309 22 313 323 336 329 354 125 67 209 170 175 253 272 262 124 232 296 335 197 327 282 155 222 280 267 110 25 8 113 153 97
339 339 340 340 342 343 343 345 348 353 355 314 291 291 316 312 322 338 355 337 325 325 193 178 155 158 158 144 46 41 3 1 345 334 333 349 340 236 155 221 251 22 15 3 18 82 281
338 338 339 339 339 340 340 342 344 349 352 319 284 257 311 288 219 18 108 309 288 298 11 357 25 143 139 90 117 55 67 308 351 339 347 339 237 246 229 196 237 210 314 299 241 80 21
338 337 337 336 336 337 337 338 341 344 348 336 282 299 282 297 261 338 6 173 213 6 227 298 326 222 200 197 68 91 47 302 47 18 349 337 307 194 22 80 222 298 285 296 62 242 318
334 333 331 331 333 333 334 334 336 341 345 346 275 273 273 278 289 286 345 329 349 351 33 277 4 329 57 27 21 77 128 194 136 199 208 240 301 20 19 75 23 209 307 140 171 239 35
331 329 329 329 329 330 329 329 330 334 340 345 278 341 338 248 269 292 281 268 271 263 264 331 295 40 60 116 236 256 169 218 131 195 111 232 43 230 29 214 13 25 223 172 193 155 144